This is the latest recevied weather packets stored in our database for station/object PA5MB-15. If no packets are shown the sender has not sent any weather packets the latest 10 day(s).
| Time | Temp. | Humidity | Pressure | Rain* | Wind** | Luminosity | Snow |
|---|---|---|---|---|---|---|---|
| 1778235924 | 17.22° C | 64% | 1019.2 hPa | 0 mm | - | 48 W/m² | - |
| 1778235630 | 17.22° C | 64% | 1019.3 hPa | 0 mm | - | 47 W/m² | - |
| 1778235331 | 17.22° C | 64% | 1019.4 hPa | 0 mm | - | 51 W/m² | - |
| 1778235030 | 17.22° C | 64% | 1019.4 hPa | 0 mm | - | 45 W/m² | - |
| 1778234730 | 16.67° C | 65% | 1019.5 hPa | 0 mm | - | 44 W/m² | - |
| 1778234432 | 16.67° C | 65% | 1019.5 hPa | 0 mm | - | 42 W/m² | - |
| 1778234139 | 16.67° C | 64% | 1019.4 hPa | 0 mm | - | 43 W/m² | - |
| 1778233830 | 16.67° C | 67% | 1019.4 hPa | 0 mm | - | 42 W/m² | - |
| 1778233530 | 17.22° C | 65% | 1019.4 hPa | 0 mm | - | 43 W/m² | - |
| 1778233230 | 16.67° C | 65% | 1019.5 hPa | 0 mm | - | 42 W/m² | - |
| 1778232930 | 16.11° C | 68% | 1019.5 hPa | 0 mm | - | 43 W/m² | - |
| 1778232630 | 15.56° C | 70% | 1019.4 hPa | 0 mm | - | 43 W/m² | - |
| 1778232330 | 15.56° C | 71% | 1019.4 hPa | 0 mm | - | 45 W/m² | - |
| 1778232030 | 16.11° C | 70% | 1019.4 hPa | 0 mm | - | 41 W/m² | - |
| 1778231730 | 15.56° C | 69% | 1019.4 hPa | 0 mm | - | 42 W/m² | - |
| 1778231426 | 15.56° C | 71% | 1019.5 hPa | 0 mm | - | 39 W/m² | - |
| 1778231130 | 15° C | 71% | 1019.5 hPa | 0 mm | - | 36 W/m² | - |
| 1778230830 | 15° C | 72% | 1019.5 hPa | 0 mm | - | 33 W/m² | - |
| 1778230531 | 15.56° C | 72% | 1019.5 hPa | 0 mm | - | 34 W/m² | - |
| 1778230224 | 15° C | 72% | 1019.5 hPa | 0 mm | - | 34 W/m² | - |
| 1778229926 | 15° C | 73% | 1019.4 hPa | 0 mm | - | 34 W/m² | - |
| 1778229631 | 15° C | 73% | 1019.4 hPa | 0 mm | - | 34 W/m² | - |
| 1778229332 | 14.44° C | 73% | 1019.4 hPa | 0 mm | - | 34 W/m² | - |
| 1778229030 | 14.44° C | 74% | 1019.4 hPa | 0 mm | - | 36 W/m² | - |
| 1778228730 | 14.44° C | 75% | 1019.4 hPa | 0 mm | - | 36 W/m² | - |
* Rain latest hour (hover to see other rain measurements)
** Current wind speed in m/s (hover to see current wind gust speed)